User: anonymous   Login
Location: Anuling
(14.1239°N, 120.8922°E)
Time: 04:07:45
(UTC+00:00)
Language:

Cosmos 1869 Rocket - Orbit

View from above orbital plane
View from above orbital plane
View from above satellite
View from above satellite

Ground track
Ground track

The orbit is defined by the following mean orbital elements,

1 18215U          26066.77903528 +.00000000 +00000-0 +86194-4 0 00003
2 18215  82.5145 175.0565 0020726  61.8207  51.4846 14.85634089    00
Epoch (UTC): 07 March 2026 18:41:48
Eccentricity: 0.0020726
inclination: 82.5145°
perigee height: 597 km
apogee height: 626 km
right ascension of ascending node: 175.0565°
argument of perigee: 61.8207°
revolutions per day: 14.85634089
mean anomaly at epoch: 51.4846°

The dashed part of the orbit path shows where the satellite is in the earth's shadow,  

DLR